Flag for Germany Weather past 2 weeks in Neustrelitz, Mecklenburg-Western Pomerania, Germany

Now
69 °F

Overcast.


Feels Like: 69 °F
Forecast: 60 / 75 °F
Wind: 3 mph from South

Location: Neuruppin

Current Time: Jul 6, 2015 at 1:44:21 AM

Latest Report: Jul 6, 2015 at 1:00 AM


Visibility: 6 mi

Pressure: 29.90 "Hg

Humidity: 92%

Dew point: 67 °F

Location of NeustrelitzLocation

Historic Weather in Neustrelitz — Graph

°F

Neustrelitz temperature yesterday

Maximum temperature yesterday: 92 °F (at 4:00 PM)
Minimum temperature yesterday: 70 °F (at 7:00 AM)
Average temperature yesterday: 81 °F

Past Weeks' High & Low Weather Summary

 TemperatureHumidityPressure
High93 °F (Jul 4, 4:00 PM)98% (Jun 23, 2:00 AM)30.29 "Hg (Jun 23, 2:00 AM)
Low49 °F (Jun 21, 7:00 AM)36% (Jul 2, 2:00 PM)29.62 "Hg (Jun 23, 3:00 AM)
Average66 °F70%30.07 "Hg
* Reported Midnight between Jun 20 and Jun 21 — Midnight between Jul 5 and Jul 6, Neustrelitz, Weather by CustomWeather, © 2015

Note: Actual official high and low records may vary slightly from our data, if they occured in-between our weather recording intervals... More about our weather records

Advertising

Neustrelitz weather history for previous 24 hours

 ConditionsComfort  
Time TempWeatherWind HumidityBarometerVisibility
12:00 AM
Mon, Jul 6
69 °FOvercast.1 mph92%29.91 "Hg6 mi
10:00 PM
Sun, Jul 5
73 °FOvercast.5 mph76%29.95 "Hg6 mi
9:00 PM82 °FOvercast.1 mph64%29.86 "Hg6 mi
8:00 PM85 °FSunny.1 mph62%29.88 "Hg6 mi
7:00 PM88 °FSunny.1 mph53%29.89 "Hg6 mi
6:00 PM89 °FSunny.1 mph49%29.91 "Hg6 mi
4:00 PM92 °FScattered clouds.No wind41%29.97 "Hg6 mi
3:00 PM92 °FOvercast.No wind44%29.98 "Hg6 mi
2:00 PM90 °FOvercast.No wind44%30.01 "Hg6 mi
1:00 PM88 °FOvercast.2 mph49%30.01 "Hg6 mi
12:00 PM88 °FScattered clouds.2 mph51%30.03 "Hg6 mi
10:00 AM81 °FSunny.1 mph66%30.06 "Hg6 mi
9:00 AM78 °FSunny.1 mph72%30.07 "Hg6 mi
8:00 AM73 °FSunny.2 mph81%30.08 "Hg6 mi
7:00 AM70 °FSunny.1 mph92%30.07 "Hg6 mi
4:00 AM70 °FClear.1 mph89%30.05 "Hg6 mi
3:00 AM71 °FOvercast.1 mph86%30.06 "Hg6 mi
2:00 AM76 °FOvercast.3 mph66%30.09 "Hg6 mi
1:00 AM78 °FOvercast.2 mph59%30.09 "Hg6 mi
Weather by CustomWeather, © 2015

See weather overviewHow to use our weather pages